Location: El Álamo
(40.2307°N, 3.9945°W)
Time: 03:12:19
(UTC+00:00)

Cosmos 2341 Rocket - Pass Details

Date: 19 May 2025
Orbit: 966 x 1004 km, 82.9° (Epoch: 23 June)

Event Time Altitude Azimuth Distance (km) Brightness Sun altitude
Rises 21:39:55 0° 353° (N) 3,687 8.0 -20.1°
Reaches altitude 10° 21:42:26 10° 354° (N) 2,730 7.2 -20.4°
Maximum altitude 21:48:42 82° 83° (E) 983 3.9 -21.1°
Enters shadow 21:51:18 38° 167° (SSE) 1,442 4.4 -21.4°
